Vorticity
8 6 9 10 6 8 5 3 7 8 11 16 12 15 20 20 14 14 12 14 18 13 13 14 17 14 14 13 14 15 14 13 14 14 11 12 10 11 12 13 7 10 9 9
9 8 7 11 8 7 8 7 7 10 19 10 16 14 17 18 14 13 13 15 16 13 13 17 16 17 17 15 14 15 14 18 15 15 13 12 12 11 14 15 15 13 16 12
9 7 10 9 7 4 6 7 9 10 15 15 15 15 15 16 14 12 15 14 15 13 14 14 14 15 15 14 14 14 15 14 13 15 17 14 12 10 12 14 17 14 19 23
6 8 11 8 7 5 5 7 6 11 8 14 14 16 19 15 14 14 17 14 15 10 15 12 13 15 15 15 16 15 13 13 15 13 13 12 12 12 10 10 13 14 16 15
8 7 11 6 11 3 5 7 13 17 11 16 13 13 14 17 11 17 17 15 13 11 15 14 12 11 15 12 14 13 14 15 13 11 11 12 13 12 8 9 9 8 10 10
8 9 10 7 7 7 6 8 11 15 11 14 14 12 13 14 12 15 20 16 12 12 13 14 14 13 9 11 12 13 12 11 11 12 13 12 12 9 6 9 9 9 9 10
7 9 10 6 6 7 9 9 19 11 12 16 13 14 17 13 12 17 22 19 10 10 10 12 12 13 14 10 10 10 11 11 11 10 11 11 9 12 10 6 8 10 10 9
7 11 9 7 6 7 9 13 13 12 12 15 14 14 17 12 12 17 19 17 14 11 7 6 10 11 8 15 10 11 11 11 10 11 11 13 10 7 10 7 10 9 8 9
8 11 8 6 6 7 7 18 10 13 12 13 12 13 16 12 12 14 14 13 14 15 15 15 11 10 13 8 11 16 15 12 10 11 9 11 11 12 8 8 10 10 7 9
10 8 8 6 7 7 13 15 11 14 14 14 12 13 13 13 11 11 10 10 7 5 6 4 9 12 13 12 12 16 18 10 12 6 9 9 14 7 9 8 9 13 10 12
11 8 7 7 9 4 19 11 12 14 14 13 15 9 9 11 9 9 9 10 10 9 9 13 14 9 11 13 11 16 20 14 13 5 8 10 7 10 8 9 8 9 9 9
8 7 8 8 6 9 20 9 12 13 16 11 19 9 9 11 7 8 8 8 8 6 7 13 14 14 13 11 13 13 23 10 12 6 8 7 6 9 9 10 11 9 8 9
7 8 8 6 6 23 13 9 12 13 17 14 16 8 10 12 9 10 11 11 8 6 6 14 15 16 17 9 14 15 14 14 20 6 5 7 6 6 9 8 9 10 8 8
6 7 7 8 13 20 13 13 12 16 15 19 11 8 9 11 11 9 13 11 11 10 8 13 20 17 13 13 15 16 18 15 7 -0 2 4 7 4 9 9 7 11 8 8
8 6 7 11 19 18 11 13 13 14 20 18 13 10 12 12 10 14 11 10 12 10 11 21 18 13 10 10 13 11 8 6 6 7 7 8 9 10 11 10 11 11 9 11
7 9 11 17 19 14 11 14 13 20 15 17 12 13 12 12 15 12 12 13 13 14 12 19 10 15 3 14 10 11 13 14 14 13 13 13 13 14 14 13 10 11 13 14
8 9 16 18 16 12 11 15 22 15 17 11 11 12 12 15 12 13 15 14 15 14 20 11 12 17 3 8 5 10 11 10 9 10 11 12 13 14 14 15 16 16 15 12
8 16 18 18 13 11 11 23 11 19 18 10 9 11 13 10 14 13 14 20 14 19 12 18 12 12 5 4 9 11 11 12 13 15 16 15 14 13 12 11 11 10 9 9
11 18 19 13 10 9 19 8 19 19 13 12 10 11 13 9 15 13 15 14 17 13 20 9 14 7 10 4 11 15 14 12 10 9 9 9 9 9 8 8 9 8 8 8
15 24 14 10 10 18 0 16 21 16 12 12 11 13 11 10 17 15 12 19 13 15 9 9 8 7 8 12 12 10 8 8 9 10 10 11 11 12 12 12 13 13 13 14
14 11 16 9 14 4 18 21 18 12 16 15 14 16 12 15 17 12 17 13 12 17 1 12 10 13 12 11 10 9 10 11 12 13 13 14 14 15 15 15 15 15 15 16
16 12 10 11 8 24 24 11 19 13 17 16 16 11 17 19 13 16 14 13 15 3 13 12 10 11 10 10 10 10 11 11 12 12 13 14 14 14 14 15 15 15 15 15
12 11 14 8 14 15 9 20 14 18 11 22 11 18 19 11 14 13 11 13 17 14 11 11 9 9 9 10 10 10 11 11 11 12 12 12 12 13 13 13 13 13 14 15
13 10 9 24 12 12 24 30 20 10 20 13 21 15 9 15 13 11 13 16 10 10 10 9 9 9 10 10 10 10 10 10 11 11 12 12 12 12 13 13 13 12 13 13
8 17 17 9 16 24 28 29 21 25 23 21 4 13 16 14 10 13 14 10 9 10 10 9 9 9 9 9 9 9 9 10 10 11 11 11 11 11 11 11 12 13 13 13
18 18 7 14 25 26 35 29 5 19 11 6 20 14 12 13 14 10 10 10 8 9 9 9 9 9 9 9 10 10 10 11 11 10 10 11 11 11 11 11 12 12 13 14
19 5 20 23 28 41 35 22 29 21 18 11 11 11 12 14 10 12 9 9 8 9 10 9 9 9 9 9 10 10 10 11 12 12 11 11 11 11 11 12 13 12 13 14
Height
5698 5689 5679 5671 5661 5650 5639 5628 5616 5603 5591 5579 5566 5553 5542 5533 5523 5516 5508 5501 5494 5489 5485 5481 5477 5475 5473 5472 5471 5471 5471 5470 5470 5471 5471 5472 5473 5474 5475 5475 5476 5476 5477 5478
5692 5683 5673 5663 5653 5644 5634 5622 5610 5596 5582 5570 5558 5547 5537 5527 5518 5510 5503 5497 5490 5485 5480 5477 5473 5470 5468 5466 5465 5465 5464 5464 5463 5464 5465 5465 5465 5465 5466 5466 5466 5466 5467 5467
5688 5678 5668 5657 5648 5637 5626 5614 5601 5592 5578 5565 5553 5542 5532 5523 5514 5507 5499 5493 5487 5482 5477 5473 5469 5466 5464 5462 5461 5460 5459 5458 5458 5458 5457 5458 5458 5459 5459 5459 5459 5457 5457 5456
5682 5672 5661 5652 5642 5631 5620 5607 5595 5582 5570 5559 5548 5538 5527 5519 5511 5503 5496 5489 5484 5479 5474 5471 5467 5463 5460 5458 5456 5455 5454 5453 5453 5452 5452 5451 5452 5452 5452 5452 5452 5451 5450 5448
5675 5665 5657 5647 5637 5626 5615 5603 5590 5578 5566 5554 5543 5533 5523 5515 5507 5500 5493 5486 5481 5476 5472 5468 5464 5461 5458 5455 5453 5451 5449 5449 5448 5447 5447 5446 5446 5446 5446 5445 5444 5442 5441 5439
5668 5659 5650 5640 5630 5619 5609 5597 5585 5572 5560 5549 5538 5529 5519 5511 5503 5496 5489 5483 5479 5474 5470 5465 5462 5459 5456 5453 5451 5449 5447 5445 5443 5443 5442 5441 5442 5440 5439 5439 5438 5436 5434 5433
5662 5652 5643 5634 5624 5612 5600 5589 5577 5566 5555 5544 5535 5525 5516 5508 5500 5493 5486 5480 5476 5472 5467 5464 5460 5456 5453 5450 5448 5446 5444 5442 5440 5438 5437 5437 5436 5435 5433 5432 5432 5430 5428 5426
5656 5647 5637 5628 5618 5607 5595 5583 5572 5560 5550 5539 5529 5521 5512 5504 5497 5490 5483 5478 5474 5469 5465 5462 5458 5454 5451 5447 5445 5442 5440 5438 5436 5434 5432 5432 5430 5429 5428 5426 5426 5423 5421 5419
5651 5641 5631 5621 5611 5600 5588 5577 5566 5555 5545 5535 5525 5517 5509 5502 5495 5489 5482 5476 5471 5467 5462 5458 5454 5449 5446 5443 5440 5437 5435 5433 5432 5430 5428 5427 5426 5424 5422 5420 5420 5417 5415 5413
5644 5634 5624 5615 5604 5593 5582 5571 5560 5550 5540 5530 5521 5513 5506 5499 5492 5486 5480 5475 5469 5464 5459 5455 5450 5446 5442 5437 5434 5432 5429 5428 5426 5425 5423 5422 5420 5419 5417 5416 5416 5411 5408 5406
5637 5628 5618 5608 5598 5586 5575 5564 5553 5545 5534 5525 5516 5508 5502 5495 5489 5483 5477 5472 5466 5461 5455 5450 5445 5441 5437 5433 5429 5426 5424 5423 5422 5420 5418 5418 5415 5414 5412 5409 5406 5404 5401 5398
5631 5621 5612 5600 5590 5579 5567 5558 5548 5538 5529 5521 5512 5505 5498 5492 5485 5479 5473 5468 5461 5456 5451 5446 5440 5436 5431 5428 5425 5422 5420 5419 5417 5416 5413 5411 5408 5407 5404 5401 5399 5396 5393 5390
5624 5614 5605 5594 5583 5572 5561 5551 5541 5532 5523 5515 5507 5500 5493 5487 5481 5475 5470 5464 5458 5453 5447 5441 5435 5431 5427 5423 5421 5417 5416 5414 5413 5410 5407 5404 5401 5398 5395 5393 5390 5387 5384 5381
5618 5608 5598 5588 5577 5566 5556 5546 5535 5525 5516 5508 5501 5494 5488 5482 5475 5469 5464 5459 5453 5447 5441 5435 5430 5426 5423 5419 5417 5413 5411 5409 5407 5405 5401 5398 5394 5390 5387 5383 5380 5378 5374 5371
5611 5602 5591 5580 5569 5559 5550 5539 5528 5518 5512 5503 5495 5488 5482 5476 5470 5464 5458 5452 5447 5441 5436 5430 5426 5422 5419 5416 5413 5410 5407 5404 5401 5398 5394 5389 5386 5382 5378 5375 5371 5367 5365 5361
5605 5594 5583 5572 5561 5551 5542 5533 5523 5513 5505 5497 5490 5484 5477 5471 5465 5459 5453 5446 5441 5436 5430 5426 5422 5419 5417 5413 5409 5406 5402 5398 5394 5390 5386 5381 5377 5373 5369 5366 5362 5358 5355 5352
5598 5587 5575 5564 5554 5544 5534 5524 5515 5506 5498 5492 5485 5479 5472 5466 5459 5453 5448 5441 5435 5430 5426 5422 5419 5416 5414 5409 5406 5401 5397 5392 5387 5382 5378 5374 5368 5365 5361 5357 5353 5348 5345 5341
5591 5579 5569 5558 5547 5537 5527 5517 5507 5499 5492 5486 5479 5474 5467 5460 5454 5449 5442 5436 5430 5426 5422 5419 5416 5413 5409 5405 5401 5396 5391 5386 5380 5375 5370 5365 5361 5356 5352 5348 5344 5339 5336 5332
5583 5572 5561 5552 5542 5532 5522 5511 5502 5494 5488 5480 5473 5466 5460 5454 5448 5443 5438 5432 5426 5423 5419 5416 5413 5409 5405 5400 5395 5389 5383 5379 5374 5369 5363 5358 5353 5348 5343 5339 5334 5330 5325 5321
5573 5562 5552 5542 5533 5523 5515 5503 5495 5488 5482 5473 5467 5461 5455 5449 5442 5437 5433 5427 5423 5419 5416 5413 5409 5405 5400 5394 5389 5383 5378 5372 5367 5361 5356 5350 5345 5340 5334 5329 5324 5319 5314 5309
5563 5552 5543 5533 5523 5515 5504 5495 5488 5480 5473 5466 5460 5454 5449 5443 5438 5433 5428 5423 5420 5416 5414 5409 5405 5400 5395 5389 5384 5377 5372 5366 5360 5354 5347 5341 5336 5330 5324 5318 5312 5307 5302 5297
5552 5541 5532 5523 5512 5502 5494 5485 5478 5469 5464 5459 5453 5448 5443 5438 5434 5430 5425 5421 5417 5413 5409 5404 5400 5395 5390 5384 5378 5372 5366 5359 5353 5346 5340 5333 5327 5321 5315 5309 5303 5297 5292 5286
5545 5534 5523 5513 5504 5495 5485 5477 5471 5464 5458 5453 5448 5443 5439 5435 5431 5427 5422 5417 5413 5410 5405 5401 5396 5390 5385 5379 5373 5367 5360 5353 5346 5339 5332 5326 5319 5313 5306 5300 5293 5287 5282 5276
5534 5525 5515 5508 5496 5487 5478 5470 5465 5460 5454 5449 5445 5440 5436 5432 5428 5423 5419 5415 5410 5405 5401 5397 5392 5387 5381 5375 5368 5361 5354 5346 5339 5332 5325 5318 5311 5304 5297 5291 5284 5278 5272 5266
5529 5519 5508 5499 5490 5480 5472 5465 5460 5454 5450 5446 5443 5439 5435 5431 5427 5421 5417 5412 5408 5404 5399 5394 5389 5383 5376 5370 5362 5355 5347 5340 5332 5325 5317 5310 5302 5295 5288 5281 5275 5268 5262 5256
5523 5514 5505 5495 5484 5474 5466 5460 5456 5452 5448 5446 5442 5437 5433 5429 5424 5420 5416 5412 5407 5402 5397 5391 5385 5378 5371 5364 5356 5349 5341 5333 5325 5317 5309 5301 5293 5285 5278 5271 5264 5258 5251 5245
5516 5507 5498 5487 5477 5469 5463 5459 5454 5451 5448 5444 5440 5436 5432 5428 5423 5420 5415 5410 5406 5401 5395 5388 5380 5373 5366 5358 5350 5342 5333 5325 5316 5308 5299 5291 5283 5275 5268 5260 5253 5247 5240 5235